Portsmouth, NH

12:52 PM EDT on May 25, 2018 (GMT -0400)
Pease International Tradeport

Weather History for KPSM - August, 2014

Change the Weather History Date:

Sunday, August 10, 2014

  Actual Average Record
Temperature  
Mean Temperature 71 °F -  
Max Temperature 83 °F 79 °F 94 °F (1973)
Min Temperature 59 °F 61 °F 45 °F (1974)
Cooling Degree Days 6    
Growing Degree Days 21 (Base 50)    
Moisture  
Dew Point 59 °F    
Average Humidity 71    
Maximum Humidity 92    
Minimum Humidity 40    
Precipitation  
Precipitation 0.00 in - - ()
Sea Level Pressure  
Sea Level Pressure 30.11 in    
Wind  
Wind Speed 5 mph (WNW)    
Max Wind Speed 13 mph    
Max Gust Speed -    
Visibility 10 miles    
Events      
Averages and records for this station are not official NWS values.
T = Trace of Precipitation, MM = Missing Value Source: NWS Daily Summary

Daily Weather History Graph

Daily Weather History Graph

Search for Another Location

Airport or City:

Astronomy

Aug. 10, 2014 Rise Set
Actual Time 5:43 AM EDT 7:52 PM EDT
Civil Twilight 5:12 AM EDT 8:24 PM EDT
Nautical Twilight 4:33 AM EDT 9:02 PM EDT
Astronomical Twilight 3:51 AM EDT 9:44 PM EDT
Moon 7:35 PM EDT (8/10) 5:33 AM EDT (8/10)
Length of Visible Light 15h 11m
Length of Day
14h 09m
Full, 100% of the Moon is Illuminated
Aug 10
Full
Aug 10
Full
Aug 17
Last Quarter
Aug 25
New
Sep 2
First Quarter

Hourly Weather History & Observations

Time (EDT) Temp. Heat Index Dew Point Humidity Pressure Visibility Wind Dir Wind Speed Gust Speed Precip Events Conditions
12:58 AM 64.0 °F - 61.7 °F 92% 30.08 in 10.0 mi WNW 3.5 mph - N/A   Clear
1:58 AM 63.5 °F - 59.7 °F 87% 30.08 in 10.0 mi NNW 8.1 mph - N/A   Clear
2:58 AM 61.9 °F - 57.7 °F 86% 30.09 in 10.0 mi NNW 5.8 mph - N/A   Clear
3:58 AM 61.2 °F - 57.2 °F 87% 30.09 in 10.0 mi WNW 4.6 mph - N/A   Clear
4:58 AM 59.9 °F - 56.5 °F 88% 30.09 in 10.0 mi WNW 4.6 mph - N/A   Clear
5:58 AM 59.4 °F - 57.0 °F 92% 30.10 in 10.0 mi West 3.5 mph - N/A   Partly Cloudy
6:58 AM 62.4 °F - 58.1 °F 86% 30.11 in 10.0 mi WNW 4.6 mph - N/A   Partly Cloudy
7:58 AM 66.6 °F - 59.5 °F 78% 30.12 in 10.0 mi WNW 3.5 mph - N/A   Partly Cloudy
8:58 AM 72.1 °F - 59.5 °F 64% 30.12 in 10.0 mi NNW 2.3 mph - N/A   Scattered Clouds
9:58 AM 75.4 °F - 61.7 °F 62% 30.13 in 10.0 mi West 2.3 mph - N/A   Scattered Clouds
10:58 AM 79.5 °F - 62.4 °F 56% 30.13 in 10.0 mi Variable 1.2 mph - N/A   Scattered Clouds
11:58 AM 82.2 °F 82.3 °F 59.0 °F 45% 30.12 in 10.0 mi West 5.8 mph - N/A   Mostly Cloudy
12:58 PM 83.1 °F 82.4 °F 56.1 °F 40% 30.11 in 10.0 mi ENE 8.1 mph - N/A   Mostly Cloudy
1:58 PM 75.7 °F - 56.8 °F 52% 30.12 in 10.0 mi East 10.4 mph - N/A   Mostly Cloudy
2:58 PM 76.1 °F - 56.8 °F 51% 30.11 in 10.0 mi ESE 12.7 mph - N/A   Mostly Cloudy
3:58 PM 76.3 °F - 57.7 °F 53% 30.11 in 10.0 mi ESE 8.1 mph - N/A   Scattered Clouds
4:58 PM 76.1 °F - 57.2 °F 52% 30.10 in 10.0 mi SSE 8.1 mph - N/A   Scattered Clouds
5:58 PM 74.7 °F - 57.6 °F 55% 30.11 in 10.0 mi SSE 8.1 mph - N/A   Scattered Clouds
6:58 PM 72.3 °F - 58.1 °F 61% 30.11 in 10.0 mi SE 9.2 mph - N/A   Mostly Cloudy
7:58 PM 68.9 °F - 59.4 °F 72% 30.11 in 10.0 mi SE 6.9 mph - N/A   Scattered Clouds
8:58 PM 67.5 °F - 62.1 °F 83% 30.13 in 10.0 mi Calm Calm - N/A   Mostly Cloudy
9:58 PM 66.2 °F - 61.2 °F 84% 30.13 in 10.0 mi SSE 2.3 mph - N/A   Scattered Clouds
10:58 PM 66.0 °F - 60.1 °F 81% 30.15 in 10.0 mi NNW 3.5 mph - N/A   Mostly Cloudy
11:58 PM 64.0 °F - 59.9 °F 86% 30.15 in 10.0 mi NE 1.2 mph - N/A   Partly Cloudy